Franklin, PA

6:37 AM EDT on October 21, 2019 (GMT -0400)
Venango Regional

Weather History for KFKL - August, 2019

Change the Weather History Date:

Monday, August 12, 2019

  Actual Average Record
Temperature  
Mean Temperature 70 °F -  
Max Temperature 81 °F 79 °F 94 °F (1926)
Min Temperature 59 °F 55 °F 34 °F (1969)
Cooling Degree Days 4    
Growing Degree Days 20 (Base 50)    
Moisture  
Dew Point 60 °F    
Average Humidity 79    
Maximum Humidity 93    
Minimum Humidity 52    
Precipitation  
Precipitation 0.01 in - - ()
Sea Level Pressure  
Sea Level Pressure 29.98 in    
Wind  
Wind Speed 5 mph (SSW)    
Max Wind Speed 8 mph    
Max Gust Speed -    
Visibility 10 miles    
Events Rain    
Averages and records for this station are not official NWS values.
T = Trace of Precipitation, MM = Missing Value Source: NWS Daily Summary

Daily Weather History Graph

Daily Weather History Graph

Search for Another Location

Airport or City:

Astronomy

Aug. 12, 2019 Rise Set
Actual Time 6:25 AM EDT 8:23 PM EDT
Civil Twilight 5:55 AM EDT 8:53 PM EDT
Nautical Twilight 5:18 AM EDT 9:29 PM EDT
Astronomical Twilight 4:38 AM EDT 10:09 PM EDT
Moon 6:53 PM EDT (8/12) 3:31 AM EDT (8/12)
Length of Visible Light 14h 57m
Length of Day
13h 57m
Waxing Gibbous, 93% of the Moon is Illuminated
Aug 12
Waxing Gibbous
Aug 15
Full
Aug 23
Last Quarter
Aug 30
New
Sep 5
First Quarter

Hourly Weather History & Observations

Time (EDT) Temp. Heat Index Dew Point Humidity Pressure Visibility Wind Dir Wind Speed Gust Speed Precip Events Conditions
12:56 AM 63.0 °F - 57.9 °F 84% 30.04 in 10.0 mi SSW 3.5 mph - N/A   Clear
1:56 AM 61.0 °F - 57.0 °F 87% 30.04 in 10.0 mi SSW 4.6 mph - N/A   Clear
2:56 AM 61.0 °F - 55.9 °F 83% 30.03 in 10.0 mi SSW 5.8 mph - N/A   Clear
3:56 AM 61.0 °F - 55.9 °F 83% 30.03 in 10.0 mi SSW 5.8 mph - N/A   Clear
4:56 AM 59.0 °F - 55.9 °F 90% 30.03 in 10.0 mi South 4.6 mph - N/A   Clear
5:56 AM 59.0 °F - 55.9 °F 90% 30.02 in 10.0 mi SSW 4.6 mph - N/A   Overcast
6:56 AM 59.0 °F - 55.9 °F 90% 30.02 in 10.0 mi Calm Calm - N/A   Mostly Cloudy
7:56 AM 63.0 °F - 57.0 °F 81% 30.02 in 10.0 mi Calm Calm - N/A   Mostly Cloudy
8:56 AM 66.9 °F - 59.0 °F 76% 30.03 in 10.0 mi South 6.9 mph - N/A   Mostly Cloudy
9:56 AM 73.0 °F - 61.0 °F 66% 30.02 in 10.0 mi SW 6.9 mph - N/A   Scattered Clouds
10:56 AM 75.0 °F - 61.0 °F 62% 30.02 in 10.0 mi SSW 8.1 mph - N/A   Partly Cloudy
11:56 AM 77.0 °F - 60.1 °F 56% 30.00 in 10.0 mi SSW 6.9 mph - N/A   Mostly Cloudy
12:56 PM 78.1 °F - 61.0 °F 56% 29.98 in 10.0 mi Variable 3.5 mph - N/A   Clear
1:56 PM 80.1 °F 81.1 °F 61.0 °F 52% 29.96 in 10.0 mi South 8.1 mph - N/A   Mostly Cloudy
2:56 PM 77.0 °F - 61.0 °F 58% 29.96 in 10.0 mi WSW 5.8 mph - N/A   Overcast
3:56 PM 70.0 °F - 63.0 °F 78% 29.97 in 10.0 mi WSW 6.9 mph - 0.00 in Rain Light Rain
4:56 PM 66.9 °F - 63.0 °F 87% 29.95 in 10.0 mi SSE 3.5 mph - 0.00 in Rain Light Rain
5:56 PM 68.0 °F - 63.0 °F 84% 29.93 in 10.0 mi SSE 4.6 mph - 0.00 in Rain Light Rain
6:56 PM 69.1 °F - 63.0 °F 81% 29.92 in 10.0 mi SSE 4.6 mph - 0.00 in   Scattered Clouds
7:56 PM 68.0 °F - 63.0 °F 84% 29.91 in 10.0 mi ESE 5.8 mph - N/A   Mostly Cloudy
8:56 PM 66.0 °F - 62.1 °F 87% 29.91 in 10.0 mi Calm Calm - N/A   Mostly Cloudy
9:56 PM 66.0 °F - 63.0 °F 90% 29.91 in 10.0 mi Calm Calm - 0.01 in   Overcast
10:56 PM 66.0 °F - 64.0 °F 93% 29.92 in 10.0 mi SSW 6.9 mph - N/A   Overcast
11:56 PM 66.0 °F - 64.0 °F 93% 29.91 in 10.0 mi SW 8.1 mph - N/A   Overcast